× DISCLAIMER Activity logs are often delayed. Not all calls show up. Many calls end up being different than initially logged as.
Sioux City Police Call Log Woodbury County Sheriff Call Log Vermillion Police Call Log        
IncidentDate  TimeActivityLocation
118016736   05/25 23:28   GUN CALL    2500 Block of S CLEVELAND ST   
118016734   05/25 23:17   ALARM    3100 Block of LINE DR   
118016735   05/25 23:16   CHECK AREA    400 Block of W 4TH ST   
118016737   05/25 23:15   DISTURBANCE    900 Block of W 7TH ST   
118016733   05/25 23:00   DISTURBANCE    900 Block of 17TH ST   
118016732   05/25 22:39   TRAFFIC ACCIDENT    I29 S   
118016725   05/25 21:24   DISTURBANCE    800 Block of 16TH ST   
118016726   05/25 21:21   CHECK WELFARE    1100 Block of S ALICE ST   
118016724   05/25 21:17   CHECK WELFARE    2200 Block of GIBSON ST   
118016723   05/25 21:15   DISTURBANCE    1600 Block of DOUGLAS ST   
118016728   05/25 21:14   ASSAULT    2200 Block of DEWEY ST   
118016722   05/25 21:07   DISTURBANCE    1100 Block of LEWIS BL   
118016721   05/25 20:59   THREATS    600 Block of DOUGLAS ST   
118016720   05/25 20:56   SHOTS FIRED    1000 Block of 25TH ST   
118016719   05/25 20:32   THEFT    3400 Block of SINGING HILLS BL   
118016717   05/25 20:13   HIT AND RUN    3400 Block of SINGING HILLS BL   
118016715   05/25 19:58   DISTURBANCE    3800 Block of GREEN AV   
118016713   05/25 19:53   DISTURBANCE    100 Block of ALICE ST   
118016712   05/25 19:14   PUBLIC INTOXICATION    800 Block of OMAHA ST   
118016710   05/25 19:03   DISTURBANCE    3500 Block of W 4TH ST   
118016714   05/25 19:02   FRAUD    1600 Block of W LUNAH AV   
118016708   05/25 18:56   ALARM    900 Block of MORNINGSIDE AV   
118016709   05/25 18:27   INTOXICATED DRIVER    2000 Block of CASSELMAN ST   
118016705   05/25 18:15   FRAUD    300 Block of 30TH ST   
118016704   05/25 18:06   BURGLARY    500 Block of MARKET ST   
118016706   05/25 17:41   ASSAULT    1300 Block of MORNINGSIDE AV   
118016701   05/25 17:38   ABANDONED VEHICLE    500 Block of 14TH ST   
118016700   05/25 17:33   DISTURBANCE    1400 Block of W 2ND ST   
118016699   05/25 17:31   TRAFFIC ACCIDENT    2900 Block of GORDON DR   
118016698   05/25 17:27   TRAFFIC ACCIDENT    3100 Block of 4TH AV   
118016696   05/25 17:23   BURGLARY    2300 Block of JONES ST   
118016703   05/25 17:05   TRAFFIC ACCIDENT    4300 Block of HARRISON ST   
118016690   05/25 16:40   THREATS    2600 Block of S RUSTIN ST   
118016689   05/25 16:31   CRIMINAL MISCHIEF    1800 Block of BUS 75 N   
118016691   05/25 16:18   ATTEMPT TO LOCATE    2100 Block of BRYAN ST   
118016688   05/25 16:15   TRAFFIC ACCIDENT    1100 Block of 10TH ST   
118016692   05/25 16:07   THEFT    3100 Block of FLOYD BL   
118016685   05/25 16:00   THEFT    3000 Block of CORRECTIONVILLE RD   
118016687   05/25 15:56   THEFT    3100 Block of FLOYD BL   
118016683   05/25 15:44   TRAFFIC ACCIDENT    700 Block of 19TH ST   
118016680   05/25 15:29   ALARM    3100 Block of W 4TH ST   
118016682   05/25 15:25   THEFT    3000 Block of HAMILTON BL   
118016684   05/25 14:59   ATTEMPT TO LOCATE    500 Block of WATER ST   
118016681   05/25 14:54   ASSAULT    800 Block of 5TH ST   
118016679   05/25 14:37   BURGLARY    1900 Block of S PATTERSON ST   
118016674   05/25 14:20   CHECK WELFARE    3200 Block of W 4TH ST   
118016676   05/25 14:13   DISTURBANCE    1500 Block of JACKSON ST   
118016677   05/25 14:01   TRAFFIC ACCIDENT    4400 Block of SERGEANT RD   
118016672   05/25 13:54   HIT AND RUN    2800 Block of HAMILTON BL   
118016670   05/25 13:37   DISTURBANCE    1800 Block of VIRGINIA ST   
118016668   05/25 13:15   ALARM    MC DONALD DR   
118016666   05/25 13:09   BURGLARY    1300 Block of S SAINT AUBIN ST   
118016667   05/25 13:04   SUSPICIOUS ACTIVITY    1400 Block of W 31ST ST   
118016663   05/25 12:45   DISTURBANCE    2800 Block of HAMILTON BL   
118016661   05/25 12:23   TRAFFIC ACCIDENT    3000 Block of FLOYD BL   
118016660   05/25 12:20   ASSAULT    1700 Block of GRANDVIEW BL   
118016659   05/25 11:37   TRAFFIC ACCIDENT    1000 Block of GORDON DR   
118016657   05/25 11:28   THEFT    2800 Block of LEECH AV   
118016653   05/25 10:35   FRAUD    500 Block of 4TH ST   
118016652   05/25 10:34   DISTURBANCE    2300 Block of RIVERSIDE BL   
118016655   05/25 10:33   TRAFFIC ACCIDENT    1400 Block of W 4TH ST   
118016647   05/25 09:35   FOUND PROPERTY    2800 Block of LINCOLN WA   
118016646   05/25 09:12   SUSPICIOUS ACTIVITY    3200 Block of VIKING DR   
118016643   05/25 08:44   ASSAULT    800 Block of DOUGLAS ST   
118016640   05/25 08:06   DISTURBANCE    3300 Block of 7TH ST   
118016638   05/25 07:51   THEFT    5900 Block of GORDON DR   
118016636   05/25 07:43   HIT AND RUN    2000 Block of S OLIVE ST   
118016642   05/25 07:42   PUBLIC INTOXICATION    600 Block of 14TH ST   
118016635   05/25 07:17   DISTURBANCE    2300 Block of RIVERSIDE BL   
118016641   05/25 07:13   ABANDONED VEHICLE    3300 Block of TRANSIT AV   
118016633   05/25 05:58   CHECK WELFARE    2100 Block of SUMMIT ST   
118016632   05/25 05:53   ALARM    400 Block of DOUGLAS ST   
118016631   05/25 05:25   ALARM    1900 Block of 6TH ST   
118016630   05/25 04:07   DISTURBANCE    2100 Block of SUMMIT ST   
118016628   05/25 02:35   DISTURBANCE    2100 Block of NEBRASKA ST   
118016625   05/25 01:52   DISTURBANCE    1800 Block of DOUGLAS ST   
118016624   05/25 01:26   NOISE DISTURBANCE    1300 Block of JACKSON ST   
118016623   05/25 01:20   ASSAULT    400 Block of PEARL ST   
118016622   05/25 00:38   CHECK AREA    3100 Block of GORDON DR